Weather History for KJKJ - January, 2014

Change the Weather History Date:

Sunday, January 12, 2014

  Actual Average (KFAR) Record (KFAR)
Temperature  
Mean Temperature 34 °F 9 °F  
Max Temperature 41 °F 18 °F 49 °F (1987)
Min Temperature 26 °F 0 °F -38 °F (1912)
Degree Days  
Heating Degree Days 32 56  
Month to date heating degree days 668  
Since 1 July heating degree days 4208  
Cooling Degree Days 0 0  
Month to date cooling degree days 0  
Year to date cooling degree days 0  
Moisture  
Dew Point 30 °F    
Average Humidity 88    
Maximum Humidity 100    
Minimum Humidity 76    
Precipitation  
Precipitation 0.00 in 0.02 in 0.47 in (1988)
Month to date precipitation 0.30  
Year to date precipitation 0.30  
Snow  
Snow 0.00 in 0.40 in 6.70 in (1988)
Month to date snowfall 4.8  
Since 1 July snowfall 24.6  
Snow Depth -    
Sea Level Pressure  
Sea Level Pressure 29.36 in    
Wind  
Wind Speed 12 mph (SW)    
Max Wind Speed 28 mph    
Max Gust Speed 25 mph    
Visibility 10 miles    
Events      
T = Trace of Precipitation, MM = Missing Value Source: NWS Daily Summary

Daily Weather History Graph

Daily Weather History Graph

Search for Another Location

Airport or City:

Trip Planner

Search our weather history database for the weather conditions in past years. The results will help you decide how hot, cold, wet, or windy it might be!

Date:

Astronomy

Jan. 12, 2014 Rise Set
Actual Time 8:09 AM CST 5:01 PM CST
Civil Twilight 7:34 AM CST 5:35 PM CST
Nautical Twilight 6:56 AM CST 6:13 PM CST
Astronomical Twilight 6:20 AM CST 6:50 PM CST
Moon 2:31 PM CST (1/12) 5:07 AM CST (1/12)
Length of Visible Light 10h 01m
Length of Day
8h 52m
Waxing Gibbous, 90% of the Moon is Illuminated
Jan 12
Waxing Gibbous
Jan 15
Full
Jan 23
Last Quarter
Jan 30
New
Feb 6
First Quarter

Hourly Weather History & Observations

Time (CST) Temp. Windchill Dew Point Humidity Pressure Visibility Wind Dir Wind Speed Gust Speed Precip Events Conditions
12:15 AM 26.6 °F 14.3 °F 24.8 °F 93% 29.39 in 10.0 mi SSE 16.1 mph 23.0 mph N/A   Scattered Clouds
12:34 AM 28.4 °F 15.8 °F 24.8 °F 86% 29.37 in 10.0 mi SSE 18.4 mph - N/A   Scattered Clouds
12:55 AM 28.4 °F 15.4 °F 24.8 °F 86% 29.34 in 10.0 mi SSE 19.6 mph 24.2 mph N/A   Scattered Clouds
1:15 AM 28.4 °F 15.8 °F 24.8 °F 86% 29.33 in 10.0 mi South 18.4 mph 24.2 mph N/A   Scattered Clouds
1:34 AM 30.2 °F 19.3 °F 24.8 °F 80% 29.32 in 10.0 mi South 15.0 mph - N/A   Mostly Cloudy
1:55 AM 30.2 °F 17.8 °F 26.6 °F 86% 29.30 in 10.0 mi South 19.6 mph 25.3 mph N/A   Overcast
2:15 AM 30.2 °F 18.5 °F 26.6 °F 86% 29.30 in 10.0 mi South 17.3 mph 24.2 mph N/A   Overcast
2:34 AM 30.2 °F 19.8 °F 26.6 °F 86% 29.31 in 10.0 mi South 13.8 mph 20.7 mph N/A   Mostly Cloudy
2:55 AM 30.2 °F 19.8 °F 26.6 °F 86% 29.29 in 10.0 mi South 13.8 mph 20.7 mph N/A   Scattered Clouds
3:15 AM 32.0 °F 22.5 °F 26.6 °F 80% 29.30 in 10.0 mi SSW 12.7 mph 23.0 mph N/A   Clear
3:34 AM 30.2 °F 20.8 °F 26.6 °F 86% 29.31 in 10.0 mi South 11.5 mph 17.3 mph N/A   Scattered Clouds
3:55 AM 30.2 °F 20.8 °F 26.6 °F 86% 29.29 in 10.0 mi South 11.5 mph 16.1 mph N/A   Scattered Clouds
4:15 AM 30.2 °F 20.2 °F 28.4 °F 93% 29.27 in 10.0 mi South 12.7 mph - N/A   Clear
4:34 AM 30.2 °F 20.8 °F 28.4 °F 93% 29.27 in 10.0 mi South 11.5 mph 18.4 mph N/A   Clear
4:55 AM 30.2 °F 20.2 °F 28.4 °F 93% 29.27 in 10.0 mi South 12.7 mph 18.4 mph N/A   Clear
5:15 AM 30.2 °F 19.3 °F 28.4 °F 93% 29.25 in 10.0 mi South 15.0 mph - N/A   Clear
5:35 AM 30.2 °F 20.8 °F 28.4 °F 93% 29.26 in 10.0 mi South 11.5 mph - N/A   Clear
5:55 AM 30.2 °F 21.3 °F 28.4 °F 93% 29.25 in 10.0 mi South 10.4 mph - N/A   Clear
6:14 AM 32.0 °F 24.2 °F 28.4 °F 87% 29.26 in 10.0 mi South 9.2 mph - N/A   Clear
6:35 AM 32.0 °F 24.2 °F 30.2 °F 93% 29.27 in 10.0 mi South 9.2 mph - N/A   Scattered Clouds
6:55 AM 32.0 °F 24.8 °F 30.2 °F 93% 29.26 in 10.0 mi South 8.1 mph - N/A   Mostly Cloudy
7:14 AM 33.8 °F 27.7 °F 30.2 °F 87% 29.27 in 10.0 mi South 6.9 mph - N/A   Scattered Clouds
7:35 AM 32.0 °F 25.6 °F 30.2 °F 93% 29.27 in 10.0 mi South 6.9 mph - N/A   Clear
7:55 AM 32.0 °F 24.8 °F 30.2 °F 93% 29.26 in 10.0 mi South 8.1 mph - N/A   Clear
8:14 AM 32.0 °F 25.6 °F 30.2 °F 93% 29.27 in 10.0 mi South 6.9 mph - N/A   Clear
8:35 AM 33.8 °F 25.3 °F 32.0 °F 93% 29.28 in 10.0 mi SSW 11.5 mph - N/A   Scattered Clouds
8:55 AM 32.0 °F 23.0 °F 30.2 °F 93% 29.29 in 10.0 mi SSW 11.5 mph - N/A   Scattered Clouds
9:14 AM 32.0 °F 25.6 °F 30.2 °F 93% 29.30 in 10.0 mi SSW 6.9 mph - N/A   Clear
9:35 AM 33.8 °F 27.0 °F 32.0 °F 93% 29.30 in 10.0 mi SW 8.1 mph - N/A   Clear
9:55 AM 33.8 °F 28.6 °F 33.8 °F 100% 29.30 in 10.0 mi SW 5.8 mph - N/A   Clear
10:14 AM 33.8 °F 28.6 °F 33.8 °F 100% 29.30 in 10.0 mi South 5.8 mph - N/A   Clear
10:35 AM 35.6 °F 29.9 °F 33.8 °F 93% 29.30 in 10.0 mi SW 6.9 mph - N/A   Clear
10:54 AM 33.8 °F 25.8 °F 33.8 °F 100% 29.31 in 10.0 mi SSW 10.4 mph - N/A   Clear
11:15 AM 35.6 °F 27.5 °F 33.8 °F 93% 29.32 in 10.0 mi SW 11.5 mph - N/A   Clear
11:34 AM 37.4 °F 30.8 °F 35.6 °F 93% 29.32 in 10.0 mi SW 9.2 mph - N/A   Clear
11:55 AM 37.4 °F 32.1 °F 35.6 °F 93% 29.31 in 10.0 mi SW 6.9 mph - N/A   Clear
12:15 PM 39.2 °F 35.0 °F 33.8 °F 81% 29.32 in 10.0 mi West 5.8 mph - N/A   Clear
12:34 PM 39.2 °F 37.0 °F 33.8 °F 81% 29.32 in 10.0 mi West 3.5 mph - N/A   Clear
12:55 PM 41.0 °F 36.4 °F 33.8 °F 76% 29.31 in 10.0 mi West 6.9 mph - N/A   Clear
1:15 PM 41.0 °F 36.4 °F 33.8 °F 76% 29.31 in 10.0 mi West 6.9 mph - N/A   Clear
1:34 PM 41.0 °F 36.4 °F 33.8 °F 76% 29.32 in 10.0 mi West 6.9 mph - N/A   Clear
1:55 PM 39.2 °F 34.2 °F 33.8 °F 81% 29.33 in 10.0 mi SW 6.9 mph - N/A   Clear
2:15 PM 39.2 °F 33.6 °F 33.8 °F 81% 29.34 in 10.0 mi SW 8.1 mph - N/A   Clear
2:34 PM 37.4 °F 32.8 °F 33.8 °F 87% 29.35 in 10.0 mi SW 5.8 mph - N/A   Clear
2:55 PM 39.2 °F 33.6 °F 33.8 °F 81% 29.35 in 10.0 mi WSW 8.1 mph - N/A   Clear
3:15 PM 37.4 °F 32.8 °F 33.8 °F 87% 29.36 in 10.0 mi WSW 5.8 mph - N/A   Clear
3:34 PM 37.4 °F 32.8 °F 33.8 °F 87% 29.36 in 10.0 mi West 5.8 mph - N/A   Clear
3:55 PM 37.4 °F 31.4 °F 33.8 °F 87% 29.36 in 10.0 mi West 8.1 mph - N/A   Clear
4:14 PM 37.4 °F 32.1 °F 33.8 °F 87% 29.38 in 10.0 mi SSW 6.9 mph - N/A   Clear
4:35 PM 37.4 °F 32.1 °F 33.8 °F 87% 29.39 in 10.0 mi WSW 6.9 mph - N/A   Clear
4:55 PM 35.6 °F 29.9 °F 33.8 °F 93% 29.39 in 10.0 mi WSW 6.9 mph - N/A   Clear
5:14 PM 33.8 °F 27.7 °F 32.0 °F 93% 29.40 in 10.0 mi SW 6.9 mph - N/A   Clear
5:35 PM 33.8 °F 27.7 °F 30.2 °F 87% 29.41 in 10.0 mi SW 6.9 mph - N/A   Clear
5:55 PM 33.8 °F 26.4 °F 30.2 °F 87% 29.41 in 10.0 mi WSW 9.2 mph - N/A   Clear
6:14 PM 35.6 °F 27.5 °F 32.0 °F 87% 29.43 in 10.0 mi West 11.5 mph - N/A   Clear
6:35 PM 35.6 °F 28.6 °F 32.0 °F 87% 29.43 in 10.0 mi WSW 9.2 mph - N/A   Clear
6:55 PM 33.8 °F 27.0 °F 30.2 °F 87% 29.43 in 10.0 mi West 8.1 mph - N/A   Clear
7:14 PM 33.8 °F 27.0 °F 30.2 °F 87% 29.44 in 10.0 mi WSW 8.1 mph - N/A   Clear
7:35 PM 33.8 °F 24.3 °F 30.2 °F 87% 29.45 in 10.0 mi West 13.8 mph - N/A   Clear
7:55 PM 32.0 °F 23.0 °F 30.2 °F 93% 29.45 in 10.0 mi West 11.5 mph - N/A   Clear
8:14 PM 33.8 °F 25.8 °F 30.2 °F 87% 29.45 in 10.0 mi West 10.4 mph - N/A   Clear
8:35 PM 32.0 °F 23.6 °F 30.2 °F 93% 29.46 in 10.0 mi West 10.4 mph - N/A   Clear
8:55 PM 32.0 °F 23.6 °F 30.2 °F 93% 29.47 in 10.0 mi West 10.4 mph - N/A   Clear
9:15 PM 33.8 °F 22.8 °F 30.2 °F 87% 29.49 in 10.0 mi WNW 18.4 mph - N/A   Clear
9:35 PM 33.8 °F 22.8 °F 30.2 °F 87% 29.50 in 10.0 mi NW 18.4 mph - N/A   Scattered Clouds
9:54 PM 33.8 °F 22.5 °F 30.2 °F 87% 29.50 in 10.0 mi NNW 19.6 mph 25.3 mph N/A   Mostly Cloudy
10:15 PM 32.0 °F 18.1 °F 30.2 °F 93% 29.53 in 10.0 mi NNW 27.6 mph - N/A   Overcast
10:35 PM 32.0 °F - 28.4 °F 87% 29.54 in 10.0 mi Calm Calm - N/A   Overcast
10:54 PM 30.2 °F 17.1 °F 26.6 °F 86% 29.56 in 10.0 mi NW 21.9 mph - N/A   Mostly Cloudy
11:15 PM 30.2 °F 18.9 °F 26.6 °F 86% 29.58 in 10.0 mi NNW 16.1 mph - N/A   Overcast
11:35 PM 28.4 °F 17.0 °F 24.8 °F 86% 29.59 in 10.0 mi NNW 15.0 mph - N/A   Overcast
11:54 PM 28.4 °F 17.0 °F 24.8 °F 86% 29.59 in 10.0 mi NW 15.0 mph - N/A   Mostly Cloudy